#timestamp,LO_Frequency,Hit,StdDev 
1542531615.6,286047002.2,N
1542531635.4,286046998.6,N
1542531655.3,286046998.5,N
1542531675.1,286047002.6,N
1542531676.0,286047002.6,N
1542531695.8,286047001.9,N
1542531715.7,286047001.3,N
1542531735.5,286047003.9,N
1542531755.3,286047005.1,N
1542531775.2,286047000.2,N
1542531795.0,286047007.2,Y
1542531795.9,286047011.9,P
1542531815.8,286047005.3,N
1542531835.6,286047005.9,N
1542531855.4,286047003.7,N
1542531875.3,286047003.0,N
1542531895.1,286047003.0,N
1542531915.9,286047003.2,N
1542531935.7,286047004.2,N
1542531955.5,286047001.4,N
1542531975.4,286047006.9,N
1542531995.2,286047006.7,N
1542532015.0,286047009.2,Y
1542532015.9,286047009.2,P
1542532035.8,286046999.7,N
1542532055.6,286047000.6,N
1542532075.5,286047001.8,N
1542532095.3,286047004.2,N
1542532115.1,286047004.3,N
1542532135.9,286047002.7,N
1542532155.7,286047002.0,N
1542532175.5,286047004.1,N
1542532195.4,286047001.8,N
1542532215.2,286047001.9,N
1542532235.1,286047002.3,N
1542532236.0,286047002.3,N
1542532255.8,286047002.1,N
1542532275.6,286047006.0,N
1542532295.5,286047005.4,N
1542532315.3,286047001.4,N
1542532335.1,286047001.3,N
1542532355.9,286047003.0,N
1542532375.7,286047001.3,N
1542532395.6,286046999.7,N
1542532415.4,286046998.9,N
1542532435.2,286046998.9,N
1542532455.1,286046996.5,N
1542532456.0,286046996.5,N
1542532475.8,286046997.6,N
1542532495.6,286046995.0,N
1542532515.5,286046995.5,N
1542532535.3,286046996.5,N
1542532555.1,286046998.3,N
1542532575.9,286046999.9,N
1542532595.7,286047004.8,N
1542532615.6,286047001.9,N
1542532635.4,286047002.7,N
1542532655.2,286047001.3,N
1542532675.1,286047004.0,N
1542532676.0,286047004.0,N
1542532695.8,286047002.5,N
1542532715.6,286047000.1,N
1542532735.5,286046999.0,N
1542532755.3,286046998.7,N
1542532775.2,286046998.3,N
1542532795.9,286047000.1,N
1542532815.7,286046999.0,N
1542532835.6,286046997.4,N
1542532855.4,286046995.8,N
1542532875.2,286046996.0,N
1542532895.1,286046999.2,N
1542532896.0,286046999.2,N
1542532915.8,286046996.6,N
1542532935.7,286046995.5,N
1542532955.5,286046994.6,N
1542532975.3,286046991.2,Y
1542532995.2,286046988.7,P
1542533015.0,286046987.8,N
1542533015.9,286046987.8,N
1542533035.8,286046989.1,N
1542533055.6,286046988.8,N
1542533075.4,286046994.7,N
1542533095.3,286046993.1,N
1542533115.1,286046994.2,N
1542533135.8,286046998.4,N
1542533155.7,286047001.4,N
1542533175.5,286046998.7,N
1542533195.3,286046995.9,N
1542533215.2,286046991.8,N
1542533235.0,286046994.5,N
1542533235.9,286046994.5,N
1542533255.8,286046991.9,N
1542533275.6,286046992.1,N
1542533295.4,286046993.1,N
1542533315.3,286046990.1,N
1542533335.1,286046991.3,N
1542533355.8,286046990.1,N
1542533375.7,286046992.8,N
1542533395.5,286046990.3,N
1542533415.4,286046992.7,N
1542533435.2,286046992.1,N
1542533455.0,286046988.6,Y
1542533455.9,286046988.6,P
1542533475.8,286046995.6,N
1542533495.6,286046995.9,N
1542533515.4,286046995.4,N
1542533535.3,286046997.0,N
1542533555.1,286046995.7,N
1542533575.9,286046992.0,Y
1542533595.7,286046999.6,P
1542533615.5,286046997.4,N
1542533635.4,286046998.0,N
1542533655.2,286046997.0,N
1542533675.0,286046998.8,N
1542533675.9,286046998.8,N
1542533695.8,286047000.6,N
1542533715.6,286047000.4,N
1542533735.5,286047001.1,N
1542533755.3,286046998.3,N
1542533775.1,286046998.9,N
1542533795.9,286046998.7,N
1542533815.7,286046998.9,N
1542533835.5,286046997.1,N
1542533855.4,286046993.7,Y
1542533875.2,286046995.5,P
1542533895.1,286046997.5,N
1542533896.0,286046997.5,N
1542533915.8,286046994.0,Y
1542533935.6,286046998.0,P
1542533955.5,286046997.6,P
1542533975.3,286046997.7,P
1542533995.2,286046996.6,Y
1542534015.9,286047001.1,P
1542534035.7,286046998.2,N
1542534055.6,286046996.7,N
1542534075.4,286046997.6,N
1542534095.2,286046996.5,N
1542534115.1,286046996.6,N
1542534116.0,286046996.6,N
1542534135.8,286046997.6,N
1542534155.7,286046995.5,Y
1542534175.5,286046997.2,P
1542534195.3,286046995.1,P
1542534215.2,286046997.8,N
1542534235.9,286046997.1,N
1542534255.7,286046997.2,N
1542534275.6,286046997.4,N
1542534295.4,286046994.9,Y
1542534315.3,286047000.5,P
1542534335.1,286046998.7,N
1542534336.0,286046998.7,N
1542534355.8,286047011.9,Y
1542534375.7,286047002.3,P
1542534395.5,286046999.8,N
1542534415.3,286046999.8,N
1542534435.2,286047000.3,N
1542534455.0,286046998.2,N
1542534455.9,286046998.2,N
1542534475.8,286046998.6,N
1542534495.6,286046996.6,N
1542534515.4,286046996.1,N
1542534535.3,286046992.9,Y
1542534555.1,286046994.5,P
1542534575.8,286046995.3,N
1542534595.7,286046996.9,N
1542534615.5,286046999.1,N
1542534635.4,286046996.9,N
1542534655.2,286046998.1,N
1542534675.0,286046996.6,N
1542534675.9,286046996.6,N
1542534695.8,286046998.7,N
1542534715.6,286047000.6,N
1542534735.4,286046998.1,N
1542534755.3,286046998.2,N
1542534775.1,286046998.6,N
1542534795.9,286047001.2,N
1542534815.7,286047001.1,N
1542534835.5,286046999.2,N
1542534855.4,286046995.7,N
1542534875.2,286046991.8,Y
1542534895.0,286046996.1,P
1542534895.9,286046996.1,P
1542534915.8,286046995.3,P
1542534935.6,286046995.0,Y
1542534955.5,286047000.9,P
1542534975.3,286047002.2,N
1542534995.1,286047000.4,N
1542535015.9,286047000.4,N
1542535035.7,286047000.1,N
1542535055.5,286046998.2,N
1542535075.4,286046996.9,N
1542535095.2,286046995.2,N
1542535115.1,286046997.0,N
1542535116.0,286046997.0,N
1542535135.8,286046998.7,N
1542535155.6,286047000.6,N
1542535175.5,286047003.2,N
1542535195.3,286046999.9,N
